740  
SXUS52 KTAE 280018  
OSOTAE  
OSOTAE  
NORTH FLORIDA/SOUTH ALABAMA/SOUTHWEST GEORGIA WEATHER ROUNDUP  
NATIONAL WEATHER SERVICE TALLAHASSEE FLORIDA  
800 PM EDT TUE JUN 27 2017  
 
NOTE: "FAIR" INDICATES FEW OR NO CLOUDS BELOW 12,000 FEET WITH NO  
SIGNIFICANT WEATHER AND/OR OBSTRUCTIONS TO VISIBILITY.  
 
!FLZ017-115-028-034-025-280100   
..NORTH FLORIDA
 
 
 
CITY SKY/WX TMP DP RH WIND PRES REMARKS  
TALLAHASSEE LGT RAIN 75 73 93 VRB5 29.99S  
APALACHICOLA CLOUDY 79 74 84 SE8 29.98S  
PERRY LGT RAIN 76 74 92 CALM 30.00S  
CROSS CITY LGT RAIN 77 73 88 NE5 30.00R  
JACKSONVILLE LGT RAIN 74 73 97 NE10 30.02S FOG  

 
 
!FLZ112-006-005-002-011-280100   
..FLORIDA PANHANDLE
 
 
 
CITY SKY/WX TMP DP RH WIND PRES REMARKS  
MARIANNA CLOUDY 81 69 67 NE6 29.99R  
BONIFAY NOT AVBL  
PANAMA CITY NW FAIR 81 70 69 N6 29.97R  
TYNDALL AFB CLOUDY 81 73 76 E5 29.97S  
TYND DRONE APT MOCLDY 80 73 78 E6 29.97  
DE FUNIAK SPR FAIR 78 67 69 NE5 30.00S  
EGLIN AFB MOCLDY 79 71 77 N3 29.98S  
DESTIN CLOUDY 83 76 79 NE5 29.98R HX 91  
HURLBURT MOCLDY 78 69 73 N5 29.98R  
CRESTVIEW CLOUDY 79 71 76 CALM 30.01R  
PENSACOLA CLOUDY 82 67 60 NE3 29.98S  

 
 
!ALZ063-066-280100   
..SOUTH ALABAMA
 
 
 
CITY SKY/WX TMP DP RH WIND PRES REMARKS  
DOTHAN CLOUDY 80 72 76 NE5 30.04S  
OZARK CAIRNS CLEAR 79 71 75 NE3 30.00  
FT RUCKER HELI MOCLDY 78 69 73 CALM 30.00  
RUCKER HELI 3 FAIR 79 67 67 E5 30.00  
RUCKER HELI 2 FAIR 81 68 65 NE6 29.99  
FLORALA APT CLOUDY 78 70 76 NE5 30.02R  
ANDALUSIA CLOUDY 82 68 62 NE5 30.00S  
TROY PTCLDY 81 68 64 CALM 30.01F  
EUFALA FAIR 83 68 60 CALM 30.00S  
MOBILE CLOUDY 81 69 67 NE5 29.99F  

 
 
!GAZ120>161-280100   
..SOUTHWEST AND SOUTH CENTRAL GEORGIA
 
 
 
CITY SKY/WX TMP DP RH WIND PRES REMARKS  
THOMASVILLE NOT AVBL  
BAINBRIDGE CLOUDY 82 72 69 CALM 30.00S  
MOODY AFB CLOUDY 73 72 94 S10 30.03R  
VALDOSTA RAIN 73 71 93 VRB5 30.03S FOG  
MOULTRIE PTCLDY 81 70 69 CALM 30.02R  
BLAKELY CLOUDY 81 72 74 CALM 30.02R  
ALBANY MOCLDY 82 68 62 N5 30.03R  
TIFTON FAIR 80 68 66 NE3 30.01S  
FITZGERALD FAIR 81 69 67 CALM 30.04R  
CORDELE FAIR 83 68 60 CALM 30.03R  
AMERICUS FAIR 79 64 61 CALM 30.04R  
HOMERVILLE MOCLDY 73 73 100 E6 30.03S  

 
 
!GMZ750-755-770-775-280100   
..COASTAL AND BUOY OBS
 
 
 
STATION/POSITION TIME TEMP WIND PRES VSBY WAVE  
AIR SEA DIR/SP/G HT/PER  
(UTC) (F) (DEG/KT/KT) (MB) (MI) (FT/S)  
KEATON BEACH 0000 75 70/ 6/ 7 1015.3R  
CEDAR KEY 0000 82 30/ 4/ 6 1015.8R  
C TOWER 0000 78 10/ 12/ 13 1015.6F  
APALACHICOLA BUO 2350 83 85 330/ 8/ 10 1014.9R 1  
PANAMA CITY BUOY 2350 83 85 10/ 4/ 6 1014.9R 1/ 6  
MOBILE BUOY 0000 82 85 60/ 6/ 6 1015.1  
ORANGE BCH AL BU 2350 81 82 10/ 6/ 8 1014.7S 1  

 
 
 
CLICK HERE TO GO TO PREVIOUS BULLETINS.

The Nexlab FL Page
The Nexlab GA Page
The Nexlab AL Page Main Text Page